Simultaneous Nadir Overpasses (SNOs) Predictions

Prediction of SNOs between AQUA and NOAA-19 Satellite Orbit:

Table of predicted SNOs for the next 14.0 days since TLE Epoch: 12/31/2021
Index Date (AQUA) Time (AQUA) Lat,Lon (AQUA) SZA (AQUA ) Date (NOAA-19) Time (NOAA-19) Lat,Lon (NOAA-19) SZA (NOAA-19 ) Distance(km) Time Diff (sec)
1 01/02/2022 00:24:35 -78.13, -25.31 78.33 01/02/2022 00:23:22 -78.11, -25.27 78.33 2.09 73
2 01/02/2022 01:14:02 78.14, 142.31 101.68 01/02/2022 01:14:19 78.14, 142.17 101.69 3.45 17
3 01/04/2022 06:47:46 -78.12,-121.06 78.54 01/04/2022 06:47:25 -78.12,-121.16 78.53 2.38 21
4 01/04/2022 07:37:14 78.17, 46.34 101.52 01/04/2022 07:38:22 78.17, 46.40 101.50 1.45 68
5 01/06/2022 12:21:30 78.09, -24.35 101.19 01/06/2022 12:20:27 78.12, -24.36 101.23 2.67 63
6 01/06/2022 13:10:57 -78.12, 143.15 78.78 01/06/2022 13:11:27 -78.16, 143.16 78.75 4.37 30
7 01/08/2022 18:44:41 78.10,-120.19 100.93 01/08/2022 18:44:30 78.14,-120.16 100.96 3.90 11
8 01/08/2022 19:34:17 -78.52, 45.40 78.55 01/08/2022 19:35:21 -78.49, 49.31 78.86 86.80 64
9 01/11/2022 00:18:25 -78.11, -23.64 79.39 01/11/2022 00:17:35 -78.08, -23.68 79.39 3.12 50
10 01/11/2022 01:07:52 78.12, 143.93 100.63 01/11/2022 01:08:34 78.12, 143.80 100.63 2.91 42
11 01/13/2022 06:41:35 -78.09,-119.34 79.76 01/13/2022 06:41:37 -78.12,-119.41 79.73 3.07 2



Historial Predications of SNOs between AQUA and NOAA-19
